Content
SEND FEEDBACK

Daily
Averages
Monthly
Summary
United States of America

ROCK HILL, NEW YORK


Home > North America > United States > New York
Elevation: 1260 feet     Latitude: 41 35N     Longitude: 074 37W

WEATHER
 
SELECT A DAY
Number of Records: 451,142;   Date Range: 1/1/95 - 10/29/14
 
SHARE

PRINT THIS DATA

[ ← Previous Day ]
WEATHER ALMANAC - JUNE 16, 2014
[ Next Day → ]
[ °C ]   °F
Weather ElementAverageHighLow
Temperature65.5 °F80.6 °F (2:55 pm)44.6 °F (5:55 am)
Dewpoint54.8 °F64.4 °F (10:15 pm)44.6 °F (5:55 am)
Humidity72.1 %100 % (2:35 am)34 % (4:35 pm)
Barometer30.15 in30.21 in (7:55 am)30.08 in (5:55 pm)
Wind Speed2.7 mph10.4 mph (6:15 pm)
Wind Gust16.1 mph (2:15 pm)
Weather ElementAverage
Visibility9 mi
Wind DirectionESE (100.9 °)

Weather ElementTotal
Precipitation---
Heating Degree Days2.4 (Base 65)
Growing Degree Days12.6 (Base 50)
Averaged from 69 records on June 16, 2014
WEATHER CONDITIONS BREAKOUT
WIND DIRECTION BREAKOUT
WEATHER BY HOUR - JUNE 16, 2014
[ °C ]   °F
Local TimeTemperatureDewpointHumidityBarometerVisibilityWind DirectionWind SpeedGust SpeedPrecipitationEventsConditions
12:35 AM53.6 °F51.8 °F94 %30.16 in10.0 miCalmClear
12:55 AM53.6 °F51.8 °F94 %30.16 in10.0 miCalmClear
1:15 AM53.6 °F51.8 °F94 %30.16 in10.0 miCalmClear
1:35 AM55.4 °F51.8 °F88 %30.16 in10.0 miCalmClear
1:55 AM53.6 °F51.8 °F94 %30.16 in10.0 miNNW (330°)4.6 mphClear
2:15 AM51.8 °F50.0 °F94 %30.17 in10.0 miCalmClear
2:35 AM51.8 °F51.8 °F100 %30.17 in10.0 miNorth (350°)3.5 mphClear
2:55 AM51.8 °F50.0 °F94 %30.16 in10.0 miNorth (350°)4.6 mphClear
3:15 AM51.8 °F50.0 °F94 %30.16 in10.0 miWNW (300°)3.5 mphClear
3:35 AM51.8 °F50.0 °F94 %30.16 in10.0 miCalmClear
3:55 AM48.2 °F46.4 °F93 %30.17 in10.0 miEast (100°)3.5 mphClear
4:15 AM50.0 °F48.2 °F94 %30.17 in10.0 miCalmClear
4:35 AM50.0 °F48.2 °F94 %30.17 in10.0 miCalmClear
4:55 AM48.2 °F46.4 °F93 %30.18 in10.0 miCalmClear
5:15 AM46.4 °F46.4 °F100 %30.19 in1.2 miCalmClear
5:35 AM48.2 °F46.4 °F93 %30.19 in0.2 miCalm
5:55 AM44.6 °F44.6 °F100 %30.19 in0.2 miCalmMostly Cloudy
6:15 AM46.4 °F46.4 °F100 %30.19 in0.5 miCalmMostly Cloudy
6:35 AM46.4 °F46.4 °F100 %30.19 in0.2 miCalmOvercast
6:55 AM46.4 °F44.6 °F93 %30.20 in0.5 miCalmMostly Cloudy
7:15 AM50.0 °F50.0 °F100 %30.20 in1.2 miCalmScattered Clouds
7:35 AM51.8 °F51.8 °F100 %30.20 in10.0 miCalmClear
7:55 AM53.6 °F51.8 °F94 %30.21 in10.0 miCalmClear
8:15 AM57.2 °F53.6 °F88 %30.21 in10.0 miCalmClear
8:35 AM57.2 °F53.6 °F88 %30.21 in10.0 miCalmClear
8:55 AM60.8 °F53.6 °F77 %30.21 in10.0 miCalmClear
9:15 AM62.6 °F55.4 °F77 %30.21 in10.0 miCalmClear
9:35 AM64.4 °F55.4 °F73 %30.21 in10.0 miCalmClear
9:55 AM66.2 °F55.4 °F68 %30.20 in10.0 miCalmClear
10:15 AM69.8 °F53.6 °F56 %30.20 in10.0 miCalmClear
10:35 AM69.8 °F53.6 °F56 %30.20 in10.0 miCalmClear
10:55 AM71.6 °F57.2 °F60 %30.20 in10.0 miCalmClear
11:35 AM71.6 °F57.2 °F60 %30.19 in10.0 miCalmClear
11:55 AM73.4 °F55.4 °F53 %30.18 in10.0 miCalmClear
12:15 PM73.4 °F55.4 °F53 %30.17 in10.0 miESE (120°)3.5 mphClear
12:35 PM75.2 °F55.4 °F50 %30.16 in10.0 miWest (270°)6.9 mphClear
12:55 PM77.0 °F57.2 °F50 %30.16 in10.0 miSSW (200°)6.9 mphClear
1:15 PM77.0 °F55.4 °F47 %30.15 in9.0 miCalmClear
1:35 PM78.8 °F53.6 °F42 %30.15 in10.0 miSSW (210°)8.1 mphClear
1:55 PM78.8 °F53.6 °F42 %30.14 in10.0 miWSW (250°)4.6 mphClear
2:15 PM78.8 °F53.6 °F42 %30.14 in10.0 miWest (280°)6.9 mph16.1 mphClear
2:35 PM78.8 °F51.8 °F39 %30.13 in10.0 miWSW (250°)5.8 mphClear
2:55 PM80.6 °F53.6 °F39 %30.13 in10.0 miWest (280°)8.1 mphClear
3:15 PM80.6 °F55.4 °F42 %30.12 in10.0 miCalmClear
3:35 PM80.6 °F57.2 °F45 %30.12 in10.0 miSouth (190°)6.9 mphClear
3:55 PM80.6 °F53.6 °F39 %30.11 in10.0 miWest (260°)5.8 mphClear
4:35 PM80.6 °F50.0 °F34 %30.11 in10.0 miWest (280°)5.8 mphClear
4:55 PM78.8 °F53.6 °F42 %30.10 in10.0 miWest (260°)3.5 mphPartly Cloudy
5:15 PM78.8 °F53.6 °F42 %30.10 in10.0 miWSW (250°)6.9 mphScattered Clouds
5:35 PM78.8 °F53.6 °F42 %30.09 in10.0 miSSW (210°)5.8 mphMostly Cloudy
5:55 PM78.8 °F53.6 °F42 %30.08 in10.0 miSouth (190°)6.9 mphOvercast
6:15 PM78.8 °F62.6 °F57 %30.08 in10.0 miSouth (170°)10.4 mphOvercast
6:35 PM77.0 °F60.8 °F57 %30.08 in10.0 miSouth (180°)6.9 mphMostly Cloudy
6:55 PM77.0 °F62.6 °F61 %30.08 in10.0 miSouth (180°)9.2 mphMostly Cloudy
7:15 PM75.2 °F60.8 °F61 %30.08 in10.0 miSouth (180°)8.1 mphPartly Cloudy
7:35 PM75.2 °F60.8 °F61 %30.08 in10.0 miSouth (180°)6.9 mphPartly Cloudy
7:55 PM73.4 °F62.6 °F69 %30.08 in10.0 miSouth (170°)4.6 mphPartly Cloudy
8:15 PM73.4 °F62.6 °F69 %30.09 in10.0 miSouth (170°)4.6 mphMostly Cloudy
8:35 PM73.4 °F62.6 °F69 %30.08 in10.0 miCalmPartly Cloudy
8:55 PM71.6 °F62.6 °F73 %30.10 in10.0 miCalmPartly Cloudy
9:15 PM71.6 °F62.6 °F73 %30.10 in10.0 miSouth (170°)3.5 mphMostly Cloudy
9:35 PM71.6 °F62.6 °F73 %30.11 in10.0 miCalmOvercast
9:55 PM71.6 °F62.6 °F73 %30.12 in10.0 miCalmOvercast
10:15 PM68.0 °F64.4 °F88 %30.10 in10.0 miCalmScattered Clouds
10:35 PM66.2 °F64.4 °F94 %30.11 in10.0 miSSW (210°)5.8 mphScattered Clouds
10:55 PM69.8 °F62.6 °F78 %30.10 in10.0 miCalmMostly Cloudy
11:15 PM69.8 °F62.6 °F78 %30.10 in10.0 miSSW (210°)4.6 mphMostly Cloudy
11:35 PM69.8 °F62.6 °F78 %30.10 in10.0 miSSW (210°)6.9 mphPartly Cloudy
11:55 PM69.8 °F64.4 °F83 %30.11 in10.0 miCalmScattered Clouds
Hourly data recorded from KMSV, located miles away from Rock Hill, New York







STORIES FROM OUR PARTNERS